Location: Bord�res
(43.2000°N, 0.2167°W)
Time: 13:08:26
(UTC+00:00)

CSL-04 Rocket - Pass Details

Date: 03 March 2021
Orbit: 805 x 861 km, 98.9° (Epoch: 20 April)

Event Time Altitude Azimuth Distance (km) Brightness Sun altitude
Rises 18:21:25 0° 140° (SE) 3,425 6.5 -6.0°
Reaches altitude 10° 18:23:57 10° 132° (SE) 2,491 5.7 -6.5°
Maximum altitude 18:28:58 37° 67° (ENE) 1,303 4.3 -7.4°
Drops below altitude 10° 18:34:00 10° 2° (N) 2,486 6.1 -8.3°
Sets 18:36:31 0° 354° (N) 3,419 6.9 -8.8°
